Weather History for KPEQ - September, 2013

Change the Weather History Date:

Monday, September 30, 2013

  Actual Average Record
Temperature  
Mean Temperature 69 °F -  
Max Temperature 94 °F 85 °F 106 °F (1977)
Min Temperature 44 °F 54 °F 40 °F (1942)
Cooling Degree Days 4    
Growing Degree Days 19 (Base 50)    
Moisture  
Dew Point 38 °F    
Average Humidity 38    
Maximum Humidity 75    
Minimum Humidity 12    
Precipitation  
Precipitation 0.00 in - - ()
Sea Level Pressure  
Sea Level Pressure 29.91 in    
Wind  
Wind Speed 5 mph (WSW)    
Max Wind Speed 16 mph    
Max Gust Speed 25 mph    
Visibility 10 miles    
Events      
Averages and records for this station are not official NWS values.
T = Trace of Precipitation, MM = Missing Value Source: NWS Daily Summary

Daily Weather History Graph

Daily Weather History Graph

Search for Another Location

Airport or City:

Trip Planner

Search our weather history database for the weather conditions in past years. The results will help you decide how hot, cold, wet, or windy it might be!

Date:

Astronomy

Sep. 30, 2013 Rise Set
Actual Time 7:47 AM CDT 7:39 PM CDT
Civil Twilight 7:23 AM CDT 8:04 PM CDT
Nautical Twilight 6:54 AM CDT 8:32 PM CDT
Astronomical Twilight 6:26 AM CDT 9:00 PM CDT
Moon 3:40 AM CDT 4:59 PM CDT
Length of Visible Light 12h 41m
Length of Day
11h 52m
Waning Crescent, 19% of the Moon is Illuminated
Sep 30
Waning Crescent
Oct 4
New
Oct 11
First Quarter
Oct 18
Full
Oct 26
Last Quarter

Hourly Weather History & Observations

Time (CDT) Temp. Dew Point Humidity Pressure Visibility Wind Dir Wind Speed Gust Speed Precip Events Conditions
12:15 AM 58.1 °F 43.0 °F 57% 30.02 in 10.0 mi Calm Calm - N/A   Clear
12:35 AM 60.6 °F 42.8 °F 52% 30.01 in 10.0 mi Calm Calm - N/A   Clear
12:55 AM 57.9 °F 43.0 °F 58% 30.00 in 10.0 mi Calm Calm - N/A   Clear
1:15 AM 57.7 °F 43.0 °F 58% 30.00 in 10.0 mi Calm Calm - N/A   Clear
1:35 AM 57.4 °F 42.8 °F 58% 30.00 in 10.0 mi Calm Calm - N/A   Clear
1:55 AM 54.7 °F 42.6 °F 64% 30.00 in 10.0 mi West 4.6 mph - N/A   Clear
2:15 AM 54.7 °F 42.3 °F 63% 29.99 in 10.0 mi West 4.6 mph - N/A   Clear
2:35 AM 55.0 °F 41.7 °F 61% 29.98 in 10.0 mi WSW 3.5 mph - N/A   Clear
2:55 AM 54.0 °F 40.5 °F 60% 29.98 in 10.0 mi WSW 4.6 mph - N/A   Clear
3:15 AM 54.0 °F 39.6 °F 58% 29.98 in 10.0 mi SSW 4.6 mph - N/A   Clear
3:35 AM 50.2 °F 40.3 °F 69% 29.97 in 10.0 mi SSW 3.5 mph - N/A   Clear
3:55 AM 50.7 °F 40.6 °F 68% 29.97 in 10.0 mi SW 3.5 mph - N/A   Clear
4:15 AM 49.3 °F 40.3 °F 71% 29.96 in 10.0 mi SSW 4.6 mph - N/A   Clear
4:35 AM 48.9 °F 40.3 °F 72% 29.95 in 10.0 mi SW 4.6 mph - N/A   Clear
4:55 AM 48.2 °F 40.1 °F 74% 29.95 in 10.0 mi SSW 8.1 mph - N/A   Clear
5:15 AM 49.1 °F 39.6 °F 70% 29.95 in 10.0 mi SW 3.5 mph - N/A   Clear
5:35 AM 50.2 °F 39.2 °F 66% 29.95 in 10.0 mi South 3.5 mph - N/A   Clear
5:55 AM 47.1 °F 37.9 °F 70% 29.95 in 10.0 mi South 4.6 mph - N/A   Clear
6:15 AM 47.3 °F 38.7 °F 72% 29.95 in 10.0 mi SSW 6.9 mph - N/A   Clear
6:35 AM 48.2 °F 38.5 °F 69% 29.95 in 10.0 mi SW 4.6 mph - N/A   Clear
6:55 AM 48.2 °F 38.7 °F 70% 29.95 in 10.0 mi North 5.8 mph - N/A   Clear
7:15 AM 47.7 °F 38.7 °F 71% 29.95 in 10.0 mi Calm Calm - N/A   Clear
7:35 AM 44.1 °F 36.3 °F 74% 29.95 in 10.0 mi Calm Calm - N/A   Clear
7:55 AM 44.2 °F 36.9 °F 75% 29.96 in 10.0 mi Calm Calm - N/A   Clear
8:15 AM 45.0 °F 37.4 °F 75% 29.95 in 10.0 mi Calm Calm - N/A   Clear
8:35 AM 48.4 °F 39.0 °F 70% 29.96 in 10.0 mi Calm Calm - N/A   Clear
8:55 AM 54.7 °F 39.7 °F 57% 29.96 in 10.0 mi Calm Calm - N/A   Clear
9:15 AM 59.4 °F 39.0 °F 47% 29.96 in 10.0 mi Calm Calm - N/A   Clear
9:35 AM 62.6 °F 38.8 °F 42% 29.96 in 10.0 mi Calm Calm - N/A   Clear
9:55 AM 66.2 °F 39.0 °F 37% 29.96 in 10.0 mi Calm Calm - N/A   Clear
10:15 AM 69.6 °F 39.4 °F 33% 29.96 in 10.0 mi NW 3.5 mph - N/A   Clear
10:35 AM 72.1 °F 40.6 °F 32% 29.96 in 10.0 mi NNW 3.5 mph - N/A   Clear
10:55 AM 78.8 °F 38.8 °F 24% 29.95 in 10.0 mi WNW 8.1 mph - N/A   Clear
11:15 AM 82.8 °F 37.8 °F 20% 29.95 in 10.0 mi West 9.2 mph - N/A   Clear
11:35 AM 84.6 °F 37.8 °F 19% 29.95 in 10.0 mi West 8.1 mph - N/A   Clear
11:55 AM 86.0 °F 37.4 °F 18% 29.93 in 10.0 mi West 11.5 mph 16.1 mph N/A   Clear
12:15 PM 87.8 °F 37.9 °F 17% 29.92 in 10.0 mi West 10.4 mph - N/A   Clear
12:35 PM 89.6 °F 38.1 °F 16% 29.92 in 10.0 mi West 11.5 mph 16.1 mph N/A   Clear
12:55 PM 90.3 °F 37.4 °F 15% 29.91 in 10.0 mi SW 9.2 mph - N/A   Clear
1:15 PM 90.9 °F 37.6 °F 15% 29.90 in 10.0 mi WSW 10.4 mph 17.3 mph N/A   Clear
1:35 PM 91.6 °F 37.2 °F 15% 29.89 in 10.0 mi West 6.9 mph - N/A   Clear
1:55 PM 91.9 °F 37.0 °F 15% 29.88 in 10.0 mi West 13.8 mph 25.3 mph N/A   Clear
2:15 PM 92.7 °F 36.9 °F 14% 29.86 in 10.0 mi WSW 10.4 mph 17.3 mph N/A   Clear
2:35 PM 92.8 °F 35.2 °F 13% 29.85 in 10.0 mi West 12.7 mph - N/A   Clear
2:55 PM 94.1 °F 36.0 °F 13% 29.85 in 10.0 mi West 13.8 mph 19.6 mph N/A   Clear
3:15 PM 93.0 °F 35.4 °F 13% 29.84 in 10.0 mi West 9.2 mph - N/A   Clear
3:35 PM 93.2 °F 35.4 °F 13% 29.84 in 10.0 mi WNW 15.0 mph 21.9 mph N/A   Clear
3:55 PM 93.7 °F 35.6 °F 13% 29.84 in 10.0 mi WSW 16.1 mph 21.9 mph N/A   Clear
4:15 PM 93.2 °F 35.2 °F 13% 29.83 in 10.0 mi WSW 13.8 mph 24.2 mph N/A   Clear
4:35 PM 93.4 °F 35.4 °F 13% 29.83 in 10.0 mi WSW 13.8 mph 21.9 mph N/A   Clear
4:55 PM 93.4 °F 34.3 °F 12% 29.83 in 10.0 mi West 15.0 mph - N/A   Clear
5:15 PM 93.0 °F 34.3 °F 13% 29.82 in 10.0 mi WSW 11.5 mph 17.3 mph N/A   Clear
5:35 PM 92.8 °F 36.0 °F 14% 29.82 in 10.0 mi West 11.5 mph 20.7 mph N/A   Clear
5:55 PM 92.3 °F 36.5 °F 14% 29.82 in 10.0 mi WSW 15.0 mph 21.9 mph N/A   Clear
6:15 PM 91.9 °F 36.9 °F 14% 29.82 in 10.0 mi WSW 12.7 mph 16.1 mph N/A   Clear
6:35 PM 91.4 °F 35.2 °F 14% 29.81 in 10.0 mi West 15.0 mph 21.9 mph N/A   Clear
6:55 PM 90.0 °F 35.1 °F 14% 29.82 in 10.0 mi West 11.5 mph - N/A   Clear
7:15 PM 88.0 °F 34.7 °F 15% 29.82 in 10.0 mi West 10.4 mph - N/A   Clear
7:35 PM 84.7 °F 34.2 °F 16% 29.82 in 10.0 mi West 9.2 mph - N/A   Clear
7:55 PM 81.5 °F 33.8 °F 18% 29.83 in 10.0 mi West 8.1 mph - N/A   Clear
8:15 PM 76.8 °F 35.1 °F 22% 29.83 in 10.0 mi West 8.1 mph - N/A   Clear
8:35 PM 75.2 °F 35.6 °F 24% 29.83 in 10.0 mi West 6.9 mph - N/A   Clear
8:55 PM 73.2 °F 34.7 °F 24% 29.83 in 10.0 mi West 5.8 mph - N/A   Clear
9:15 PM 71.2 °F 34.7 °F 26% 29.84 in 10.0 mi West 6.9 mph - N/A   Clear
9:35 PM 68.9 °F 35.1 °F 29% 29.84 in 10.0 mi West 6.9 mph - N/A   Clear
9:55 PM 67.5 °F 34.7 °F 30% 29.85 in 10.0 mi WSW 6.9 mph - N/A   Clear
10:15 PM 66.2 °F 34.9 °F 31% 29.86 in 10.0 mi WSW 6.9 mph - N/A   Clear
10:35 PM 66.4 °F 34.2 °F 30% 29.86 in 10.0 mi WSW 6.9 mph - N/A   Clear
10:55 PM 67.1 °F 33.8 °F 29% 29.86 in 10.0 mi SW 6.9 mph - N/A   Clear
11:15 PM 67.1 °F 33.8 °F 29% 29.86 in 10.0 mi WSW 6.9 mph - N/A   Clear
11:35 PM 63.9 °F 34.2 °F 33% 29.86 in 10.0 mi SSW 6.9 mph - N/A   Clear
11:55 PM 61.9 °F 34.9 °F 36% 29.86 in 10.0 mi SSW 8.1 mph - N/A   Clear